Volver al catálogo

STARLINK-33593

ActivoComunicacionesVLEO
NORAD 62780·PAYLOAD·🇺🇸 United States

Lanzado Jan 21, 2025 desde Vandenberg Space Force Base

Loading…

Próximos Pases (próximas 24 horas)

TLE

ActualizadoSource: CelesTrak SupGP

Época: Sep 15, 2026, 03:53 UTC

1 62780C 25015Y   26258.16229167  .00048471  00000+0  14323-2 0  2589
2 62780  53.1576 158.7087 0001279  86.0564 213.0017 15.34360960    18

Sigue STARLINK-33593 en tiempo real con AllMySat

Download on the App Store